CMP209 MROC-MPTO

Flight info

Callsign CMP209
Flight time 0h 51m
Altitude 35000
Route TEJAR3M LIO UA317 BUFEO DCT BITOR VUMAN2
Aircraft B738/M-SDE2E3FGHIRWXY/LB1

Departure

Time 2026-05-05 00:48
Airport Juan Santamaría International Airport (MROC)

Arrival

Time 2026-05-05 01:40
Airport Tocumen International Airport (MPTO)
Time Latitude Longitude Altitude Speed Heading
2026-05-05 00:29 9.99703 -84.20450 3011 ft 0 kts 338°
2026-05-05 00:38 9.99697 -84.20447 3011 ft 4 kts 337°
2026-05-05 00:38 9.99674 -84.20437 3011 ft 3 kts 329°
2026-05-05 00:38 9.99663 -84.20428 3017 ft 2 kts 290°
2026-05-05 00:39 9.99662 -84.20417 3017 ft 2 kts 254°
2026-05-05 00:39 9.99666 -84.20406 3022 ft 2 kts 250°
2026-05-05 00:41 9.99649 -84.20452 3010 ft 14 kts 250°
2026-05-05 00:41 9.99614 -84.20542 3007 ft 13 kts 247°
2026-05-05 00:41 9.99583 -84.20627 3003 ft 13 kts 252°
2026-05-05 00:42 9.99553 -84.20712 2999 ft 13 kts 249°
2026-05-05 00:42 9.99522 -84.20793 2996 ft 12 kts 249°
2026-05-05 00:42 9.99492 -84.20873 2992 ft 12 kts 249°
2026-05-05 00:42 9.99463 -84.20950 2988 ft 12 kts 249°
2026-05-05 00:43 9.99435 -84.21026 2984 ft 11 kts 249°
2026-05-05 00:43 9.99407 -84.21099 2981 ft 11 kts 249°
2026-05-05 00:43 9.99379 -84.21170 2978 ft 11 kts 249°
2026-05-05 00:43 9.99354 -84.21240 2974 ft 10 kts 251°
2026-05-05 00:44 9.99330 -84.21307 2971 ft 10 kts 250°
2026-05-05 00:44 9.99305 -84.21373 2968 ft 10 kts 248°
2026-05-05 00:44 9.99280 -84.21440 2958 ft 13 kts 249°
2026-05-05 00:44 9.99243 -84.21539 2962 ft 15 kts 249°
2026-05-05 00:45 9.99206 -84.21637 2949 ft 15 kts 250°
2026-05-05 00:45 9.99172 -84.21731 2946 ft 14 kts 250°
2026-05-05 00:45 9.99138 -84.21822 2946 ft 13 kts 249°
2026-05-05 00:45 9.99105 -84.21908 2936 ft 13 kts 250°
2026-05-05 00:46 9.99100 -84.21995 2943 ft 12 kts 279°
2026-05-05 00:46 9.99102 -84.22077 2934 ft 11 kts 252°
2026-05-05 00:46 9.99075 -84.22151 2929 ft 11 kts 248°
2026-05-05 00:46 9.99027 -84.22203 2934 ft 11 kts 194°
2026-05-05 00:47 9.98959 -84.22185 2932 ft 10 kts 158°
2026-05-05 00:47 9.98924 -84.22167 2929 ft 4 kts 135°
2026-05-05 00:47 9.98922 -84.22148 2933 ft 0 kts 76°
2026-05-05 00:47 9.98946 -84.22074 2935 ft 37 kts 68°
2026-05-05 00:48 9.99117 -84.21619 2956 ft 100 kts 69°
2026-05-05 00:48 9.99429 -84.20786 2996 ft 151 kts 69°
2026-05-05 00:48 9.99837 -84.19690 3360 ft 172 kts 66°
2026-05-05 00:48 10.00296 -84.18518 4018 ft 181 kts 68°
2026-05-05 00:49 10.00770 -84.17321 4776 ft 188 kts 68°
2026-05-05 00:49 10.01290 -84.16002 5067 ft 214 kts 68°
2026-05-05 00:49 10.01860 -84.14560 5466 ft 223 kts 68°
2026-05-05 00:49 10.02271 -84.13054 6077 ft 228 kts 90°
2026-05-05 00:50 10.01848 -84.11486 6560 ft 244 kts 120°
2026-05-05 00:50 10.00622 -84.10168 6794 ft 271 kts 139°
2026-05-05 00:50 9.99121 -84.08946 7379 ft 281 kts 139°
2026-05-05 00:50 9.97578 -84.07714 8197 ft 281 kts 140°
2026-05-05 00:51 9.96032 -84.06470 8980 ft 286 kts 140°
2026-05-05 00:51 9.94497 -84.05223 9786 ft 287 kts 139°
2026-05-05 00:51 9.92927 -84.03939 10408 ft 296 kts 140°
2026-05-05 00:51 9.91259 -84.02573 10577 ft 320 kts 140°
2026-05-05 00:52 9.89452 -84.01125 10742 ft 342 kts 140°
2026-05-05 00:52 9.87533 -83.99604 11074 ft 355 kts 141°
2026-05-05 00:52 9.85567 -83.98046 11632 ft 360 kts 140°
2026-05-05 00:52 9.83805 -83.96245 12211 ft 362 kts 122°
2026-05-05 00:53 9.82836 -83.93908 12908 ft 361 kts 102°
2026-05-05 00:53 9.82641 -83.91370 13488 ft 366 kts 84°
2026-05-05 00:53 9.82981 -83.88800 14033 ft 370 kts 81°
2026-05-05 00:53 9.83397 -83.86206 14559 ft 374 kts 81°
2026-05-05 00:54 9.83834 -83.83591 15076 ft 377 kts 80°
2026-05-05 00:54 9.84273 -83.80949 15589 ft 381 kts 81°
2026-05-05 00:54 9.84701 -83.78323 16091 ft 384 kts 81°
2026-05-05 00:54 9.85129 -83.75635 16579 ft 388 kts 81°
2026-05-05 00:55 9.85557 -83.72912 17092 ft 391 kts 81°
2026-05-05 00:55 9.85981 -83.70182 17584 ft 395 kts 81°
2026-05-05 00:55 9.86409 -83.67414 18049 ft 398 kts 81°
2026-05-05 00:55 9.86838 -83.64628 18499 ft 402 kts 81°
2026-05-05 00:56 9.87270 -83.61817 18899 ft 405 kts 81°
2026-05-05 00:56 9.87705 -83.58988 19305 ft 407 kts 81°
2026-05-05 00:56 9.88143 -83.56132 19692 ft 411 kts 80°
2026-05-05 00:56 9.88584 -83.53256 20079 ft 414 kts 81°
2026-05-05 00:57 9.89023 -83.50394 20488 ft 416 kts 81°
2026-05-05 00:57 9.89470 -83.47480 20876 ft 419 kts 81°
2026-05-05 00:57 9.89920 -83.44540 21222 ft 423 kts 81°
2026-05-05 00:57 9.90373 -83.41584 21587 ft 426 kts 81°
2026-05-05 00:58 9.90828 -83.38607 21954 ft 428 kts 81°
2026-05-05 00:58 9.91288 -83.35604 22304 ft 431 kts 81°
2026-05-05 00:58 9.91750 -83.32582 22631 ft 434 kts 80°
2026-05-05 00:58 9.92213 -83.29545 22959 ft 437 kts 80°
2026-05-05 00:59 9.92680 -83.26489 23295 ft 440 kts 80°
2026-05-05 00:59 9.93148 -83.23421 23600 ft 443 kts 80°
2026-05-05 00:59 9.93619 -83.20328 23884 ft 445 kts 80°
2026-05-05 00:59 9.94092 -83.17220 24188 ft 446 kts 80°
2026-05-05 01:00 9.94567 -83.14102 24488 ft 447 kts 80°
2026-05-05 01:00 9.95037 -83.11015 24795 ft 449 kts 80°
2026-05-05 01:00 9.95514 -83.07879 25047 ft 451 kts 80°
2026-05-05 01:00 9.95856 -83.04707 25289 ft 455 kts 88°
2026-05-05 01:01 9.95797 -83.02536 25470 ft 456 kts 94°
2026-05-05 01:01 9.95305 -82.99346 25758 ft 458 kts 104°
2026-05-05 01:01 9.94380 -82.96284 26037 ft 460 kts 108°
2026-05-05 01:01 9.93350 -82.93197 26285 ft 462 kts 108°
2026-05-05 01:02 9.92309 -82.90112 26540 ft 464 kts 108°
2026-05-05 01:02 9.91271 -82.87006 26784 ft 466 kts 108°
2026-05-05 01:02 9.90244 -82.83883 27023 ft 468 kts 108°
2026-05-05 01:02 9.89222 -82.80738 27277 ft 469 kts 108°
2026-05-05 01:03 9.88205 -82.77587 27521 ft 471 kts 107°
2026-05-05 01:03 9.87183 -82.74414 27660 ft 475 kts 107°
2026-05-05 01:03 9.86153 -82.71214 27804 ft 479 kts 108°
2026-05-05 01:03 9.85123 -82.68015 28181 ft 477 kts 108°
2026-05-05 01:04 9.84091 -82.64818 28411 ft 478 kts 108°
2026-05-05 01:04 9.82007 -82.58363 28765 ft 483 kts 108°
2026-05-05 01:04 9.80950 -82.55132 29063 ft 482 kts 108°
2026-05-05 01:05 9.79853 -82.51912 29283 ft 484 kts 109°
2026-05-05 01:05 9.78731 -82.48693 29511 ft 485 kts 109°
2026-05-05 01:05 9.77598 -82.45465 29844 ft 484 kts 109°
2026-05-05 01:05 9.76473 -82.42260 30192 ft 481 kts 109°
2026-05-05 01:06 9.75371 -82.39108 30461 ft 481 kts 109°
2026-05-05 01:06 9.74257 -82.35912 30762 ft 479 kts 109°
2026-05-05 01:06 9.73156 -82.32745 31195 ft 474 kts 109°
2026-05-05 01:06 9.72066 -82.29605 31557 ft 471 kts 109°
2026-05-05 01:07 9.70980 -82.26473 31826 ft 471 kts 109°
2026-05-05 01:07 9.69893 -82.23341 32079 ft 471 kts 109°
2026-05-05 01:07 9.68808 -82.20214 32388 ft 470 kts 109°
2026-05-05 01:07 9.67723 -82.17091 32721 ft 468 kts 109°
2026-05-05 01:08 9.66649 -82.13998 33080 ft 465 kts 109°
2026-05-05 01:08 9.65574 -82.10907 33438 ft 463 kts 109°
2026-05-05 01:08 9.64506 -82.07834 33758 ft 462 kts 109°
2026-05-05 01:08 9.63438 -82.04765 34016 ft 461 kts 110°
2026-05-05 01:09 9.62374 -82.01707 34374 ft 457 kts 110°
2026-05-05 01:09 9.61332 -81.98712 34686 ft 455 kts 110°
2026-05-05 01:09 9.60265 -81.95649 34874 ft 456 kts 110°
2026-05-05 01:09 9.59208 -81.92614 34920 ft 459 kts 110°
2026-05-05 01:10 9.57094 -81.86548 34932 ft 459 kts 110°
2026-05-05 01:10 9.54973 -81.80463 34936 ft 456 kts 110°
2026-05-05 01:11 9.52866 -81.74423 34934 ft 454 kts 110°
2026-05-05 01:11 9.50762 -81.68395 34931 ft 453 kts 110°
2026-05-05 01:12 9.48658 -81.62374 34945 ft 453 kts 110°
2026-05-05 01:12 9.46559 -81.56366 34938 ft 452 kts 110°
2026-05-05 01:13 9.44452 -81.50342 34444 ft 459 kts 110°
2026-05-05 01:13 9.43387 -81.47299 33891 ft 458 kts 109°
2026-05-05 01:13 9.42322 -81.44256 33237 ft 458 kts 109°
2026-05-05 01:14 9.41262 -81.41229 32797 ft 454 kts 109°
2026-05-05 01:14 9.40211 -81.38227 32314 ft 451 kts 109°
2026-05-05 01:14 9.39179 -81.35279 31861 ft 448 kts 109°
2026-05-05 01:14 9.38143 -81.32323 31420 ft 445 kts 109°
2026-05-05 01:15 9.37108 -81.29371 30937 ft 443 kts 108°
2026-05-05 01:15 9.36080 -81.26438 30487 ft 441 kts 109°
2026-05-05 01:15 9.35052 -81.23509 30025 ft 440 kts 108°
2026-05-05 01:15 9.34031 -81.20598 29506 ft 438 kts 109°
2026-05-05 01:16 9.33016 -81.17706 29029 ft 434 kts 108°
2026-05-05 01:16 9.32008 -81.14833 28558 ft 431 kts 108°
2026-05-05 01:16 9.31007 -81.11981 28097 ft 428 kts 109°
2026-05-05 01:16 9.30013 -81.09148 27643 ft 426 kts 109°
2026-05-05 01:17 9.29025 -81.06334 27193 ft 423 kts 109°
2026-05-05 01:17 9.28042 -81.03536 26747 ft 421 kts 108°
2026-05-05 01:17 9.27063 -81.00753 26281 ft 419 kts 109°
2026-05-05 01:17 9.26094 -80.97968 25723 ft 420 kts 108°
2026-05-05 01:18 9.25155 -80.95210 25237 ft 419 kts 108°
2026-05-05 01:18 9.24214 -80.92419 24767 ft 418 kts 108°
2026-05-05 01:18 9.23276 -80.89635 24313 ft 413 kts 108°
2026-05-05 01:18 9.22353 -80.86899 23881 ft 408 kts 108°
2026-05-05 01:19 9.21441 -80.84202 23436 ft 404 kts 108°
2026-05-05 01:19 9.20537 -80.81530 22958 ft 398 kts 108°
2026-05-05 01:19 9.19643 -80.78893 22517 ft 392 kts 108°
2026-05-05 01:19 9.18761 -80.76294 22101 ft 389 kts 108°
2026-05-05 01:20 9.17885 -80.73712 21691 ft 387 kts 108°
2026-05-05 01:20 9.17015 -80.71146 21292 ft 384 kts 108°
2026-05-05 01:20 9.16150 -80.68598 20892 ft 382 kts 108°
2026-05-05 01:20 9.15292 -80.66071 20486 ft 379 kts 108°
2026-05-05 01:21 9.14435 -80.63549 20087 ft 377 kts 108°
2026-05-05 01:21 9.13599 -80.61087 19700 ft 375 kts 108°
2026-05-05 01:21 9.12752 -80.58594 19307 ft 373 kts 108°
2026-05-05 01:21 9.11913 -80.56125 18914 ft 371 kts 108°
2026-05-05 01:22 9.11076 -80.53664 18505 ft 369 kts 108°
2026-05-05 01:22 9.10239 -80.51203 18136 ft 366 kts 108°
2026-05-05 01:22 9.09413 -80.48773 17734 ft 363 kts 108°
2026-05-05 01:22 9.08596 -80.46373 17468 ft 356 kts 108°
2026-05-05 01:23 9.07803 -80.44044 17312 ft 346 kts 108°
2026-05-05 01:23 9.07028 -80.41766 17163 ft 337 kts 108°
2026-05-05 01:23 9.06275 -80.39551 17011 ft 329 kts 107°
2026-05-05 01:23 9.05684 -80.37329 16668 ft 326 kts 101°
2026-05-05 01:24 9.05266 -80.35121 16391 ft 319 kts 99°
2026-05-05 01:24 9.04886 -80.32906 16094 ft 312 kts 99°
2026-05-05 01:24 9.04525 -80.30785 15642 ft 309 kts 99°
2026-05-05 01:24 9.04150 -80.28645 15152 ft 307 kts 99°
2026-05-05 01:25 9.03771 -80.26525 14702 ft 305 kts 99°
2026-05-05 01:25 9.03388 -80.24426 14269 ft 302 kts 99°
2026-05-05 01:25 9.03005 -80.22350 13850 ft 299 kts 99°
2026-05-05 01:25 9.02622 -80.20292 13373 ft 297 kts 99°
2026-05-05 01:26 9.02241 -80.18252 12948 ft 292 kts 99°
2026-05-05 01:26 9.01866 -80.16252 12605 ft 286 kts 99°
2026-05-05 01:26 9.01499 -80.14298 12293 ft 279 kts 99°
2026-05-05 01:26 9.01139 -80.12382 12007 ft 275 kts 99°
2026-05-05 01:27 9.00779 -80.10470 11732 ft 279 kts 100°
2026-05-05 01:27 9.00416 -80.08541 11452 ft 284 kts 100°
2026-05-05 01:27 9.00042 -80.06551 11150 ft 290 kts 100°
2026-05-05 01:27 8.99662 -80.04536 10847 ft 292 kts 100°
2026-05-05 01:28 8.99282 -80.02519 10530 ft 292 kts 100°
2026-05-05 01:28 8.98902 -80.00508 10266 ft 289 kts 100°
2026-05-05 01:28 8.98528 -79.98529 10118 ft 283 kts 100°
2026-05-05 01:28 8.98164 -79.96597 9929 ft 278 kts 101°
2026-05-05 01:29 8.97800 -79.94675 9643 ft 278 kts 100°
2026-05-05 01:29 8.97439 -79.92760 9352 ft 277 kts 100°
2026-05-05 01:29 8.97078 -79.90848 9059 ft 276 kts 100°
2026-05-05 01:29 8.96719 -79.88948 8772 ft 275 kts 100°
2026-05-05 01:30 8.96361 -79.87057 8489 ft 274 kts 100°
2026-05-05 01:30 8.96004 -79.85168 8206 ft 273 kts 100°
2026-05-05 01:30 8.95646 -79.83275 7927 ft 273 kts 100°
2026-05-05 01:30 8.95294 -79.81419 7654 ft 272 kts 100°
2026-05-05 01:31 8.94938 -79.79537 7369 ft 272 kts 100°
2026-05-05 01:31 8.94577 -79.77632 7085 ft 272 kts 100°
2026-05-05 01:31 8.94224 -79.75771 6794 ft 273 kts 100°
2026-05-05 01:31 8.93868 -79.73890 6521 ft 272 kts 100°
2026-05-05 01:32 8.93512 -79.72009 6223 ft 272 kts 100°
2026-05-05 01:32 8.93156 -79.70134 5938 ft 271 kts 100°
2026-05-05 01:32 8.92801 -79.68259 5629 ft 271 kts 100°
2026-05-05 01:32 8.92446 -79.66387 5354 ft 271 kts 100°
2026-05-05 01:33 8.92093 -79.64528 5059 ft 267 kts 100°
2026-05-05 01:33 8.91747 -79.62703 4885 ft 260 kts 99°
2026-05-05 01:33 8.91411 -79.60940 4757 ft 250 kts 99°
2026-05-05 01:33 8.91094 -79.59271 4607 ft 240 kts 99°
2026-05-05 01:34 8.90785 -79.57641 4387 ft 230 kts 99°
2026-05-05 01:34 8.90491 -79.56089 4168 ft 219 kts 99°
2026-05-05 01:34 8.90212 -79.54623 3952 ft 207 kts 99°
2026-05-05 01:34 8.89951 -79.53249 3826 ft 193 kts 99°
2026-05-05 01:35 8.89699 -79.51921 3731 ft 192 kts 98°
2026-05-05 01:35 8.89446 -79.50583 3569 ft 195 kts 99°
2026-05-05 01:35 8.89375 -79.49237 3359 ft 192 kts 74°
2026-05-05 01:35 8.89968 -79.48060 3216 ft 188 kts 51°
2026-05-05 01:36 8.90955 -79.47194 3134 ft 189 kts 31°
2026-05-05 01:36 8.92103 -79.46519 2883 ft 198 kts 31°
2026-05-05 01:36 8.93270 -79.45812 2504 ft 200 kts 30°
2026-05-05 01:36 8.94442 -79.45135 2256 ft 185 kts 29°
2026-05-05 01:37 8.95525 -79.44531 1934 ft 174 kts 27°
2026-05-05 01:37 8.96518 -79.43969 1779 ft 159 kts 30°
2026-05-05 01:37 8.97474 -79.43412 1598 ft 158 kts 29°
2026-05-05 01:37 8.98433 -79.42864 1411 ft 158 kts 29°
2026-05-05 01:38 8.99385 -79.42322 1190 ft 153 kts 28°
2026-05-05 01:38 9.00306 -79.41799 992 ft 149 kts 28°
2026-05-05 01:38 9.01209 -79.41282 838 ft 152 kts 31°
2026-05-05 01:38 9.02146 -79.40745 656 ft 157 kts 28°
2026-05-05 01:39 9.03078 -79.40228 465 ft 150 kts 30°
2026-05-05 01:39 9.03980 -79.39697 244 ft 153 kts 30°
2026-05-05 01:39 9.04912 -79.39177 62 ft 155 kts 30°
2026-05-05 01:39 9.05768 -79.38689 30 ft 119 kts 29°
2026-05-05 01:40 9.06300 -79.38389 30 ft 56 kts 24°
2026-05-05 01:40 9.06511 -79.38377 29 ft 24 kts 357°
2026-05-05 01:40 9.06560 -79.38378 29 ft 3 kts
2026-05-05 01:40 9.06577 -79.38378 29 ft 2 kts
2026-05-05 01:41 9.06594 -79.38378 29 ft 2 kts 359°
2026-05-05 01:41 9.06611 -79.38379 29 ft 2 kts 352°
2026-05-05 01:41 9.06626 -79.38387 29 ft 3 kts 327°
2026-05-05 01:41 9.06653 -79.38416 29 ft 7 kts 310°
2026-05-05 01:42 9.06700 -79.38435 29 ft 8 kts 14°
2026-05-05 01:42 9.06745 -79.38414 29 ft 5 kts 23°
2026-05-05 01:42 9.06775 -79.38425 29 ft 5 kts 316°
2026-05-05 01:42 9.06785 -79.38445 29 ft 2 kts 292°
2026-05-05 01:43 9.06786 -79.38448 29 ft 0 kts 292°
2026-05-05 01:43 9.06787 -79.38450 29 ft 2 kts 292°
2026-05-05 01:43 9.06790 -79.38457 29 ft 0 kts 292°